Showing default

YAOGAN-31 C, 43277

Orbit data source: Space-Track

YAOGAN-31 C, 43277 is a payload satellite owned by PLA SSF (CN) in LEO that was launched on Tue, 10 Apr 2018 UTC via a CHANG ZHENG 4C launch vehicle from the Jiuquan Satellite Launch Center, China (JSC). Payload-class satellites include a variety of spacecraft equipped with specific instruments for various scientific and technological missions. These include communications satellites like Starlink; space stations such as the ISS; scientific satellites like the Hubble; Earth observation satellites from companies like Planet Labs, Umbra, and HawkEye 360; GPS; miniature CubeSats for education and research; and military/defense satellites.

Loading next visibility...
Identifier
43277, 2018-034C
Orbit
LEO
Country
Flag of CNCN / PRC
Related business
Manufacturer
DFH
Mission
Operational Defense Sigint
Bus & Motor
Unknown
Mass
~500 kg wet, ~500 kg dry
Launch date (UTC)
2018-04-10 (8 years ago)
Launch vehicle
CHANG ZHENG 4C
Launch site
Jiuquan Satellite Launch Center, China (JSC)
Object type
Payload
Rocket body
Debris
Shape & HBR
Box + 2 Pan, 0.5 m
Radar Cross Section
0.446 m², Large (>1 m²)

Expand to show TLE details & history
Last TLE update: 5 hours ago

TLE from 5 hours ago
0 YAOGAN-31 C
1 43277U 18034C   25308.60354866 -.00000012  00000-0  10802-3 0  9993
2 43277  63.3968 308.4003 0255345   6.4182 354.0012 13.45414829372023
Epoch: 2025-11-04T14:29Z
TLE epoch observation values (Epoch: 2025-11-04T14:29:06.604Z)
Latitude
0.00001°
Longitude
47.03459°
Altitude
901.35 km
Speed
7.495 km/s
True Right ascension
20h 33m 36s
True Declination
0° 00' 00"
Sunlit
Object was in daylight at epoch
Visualization orbit readout
Latitude
Unknown
Longitude
Unknown
Altitude
Unknown
Speed
Unknown
Apparent Right ascension
Unknown
Apparent Declination
Unknown
Sunlit
N/A
Visualization observer readout
Local Sidereal Time
15:36:45
Azimuth
Unknown
Elevation
Unknown
Doppler factor
Unknown
Orbital elements
Apogee altitude
1,278.649 km
Perigee altitude
897.361 km
Semi-major axis
7,466.142 km
Eccentricity
0.02553
Inclination
63.3968°
RAAN
308.4003°
Arg. of periapsis
6.4182°
True anomaly
353.6854°
Mean anomaly
354.0012°
Eccentric anomaly
353.84432°
Mean motion
3.36433 °/min
Orbital period
107 mins
BSTAR
0.00010802
Loading maneuver chart data...
Computing Atmospheric mass density...
Loading historical data...
Loading historical data...
Loading historical data...
Loading historical data...
Loading historical data...
Loading historical data...
Loading historical data...

Documentation

Showing up to 5 results
|